Regional Weather Roundup
Issued by NWS

Home | Current Version | Previous Version | Graphics & Text | Print | Product List | Glossary On
Versions: 1 2 3 4 5 6 7 8 9 10 11 12 13 14 15 16 17 18 19 20 21 22 23 24 25 26 27 28 29 30 31 32 33 34 35 36 37 38 39 40 41 42 43 44 45 46 47 48 49 50
625
ASUS44 KLIX 210801
RWRLA
LOUISIANA WEATHER ROUNDUP
NATIONAL WEATHER SERVICE NEW ORLEANS LA
300 AM CDT MON APR 21 2014

NOTE: "FAIR" INDICATES FEW OR NO CLOUDS BELOW 12,000 FEET WITH NO
      SIGNIFICANT WEATHER AND/OR OBSTRUCTIONS TO VISIBILITY.
      SKY/WX - SKY CONDITION AND SIGNIFICANT WEATHER.
      TMP - AIR TEMPERATURE.    DP   - DEWPOINT TEMPERATURE.
      RH  - RELATIVE HUMIDITY.  PRES - PRESSURE.
      HX  - HEAT INDEX.         WCI  - WIND CHILL INDEX.

*  THESE STATIONS ARE NOT NWS OR FAA STATIONS AND ARE NOT UNDER
   NWS QUALITY CONTROL.

LAZ040-048-061>063-065-066-069-210900-
SOUTHEAST LOUISIANA

CITY           SKY/WX    TMP DP  RH WIND       PRES   REMARKS
N.O. AUDUBON   NOT AVBL
N.O. INTL ARPT PTCLDY    61  57  87 SE7       30.13F
N.O. LAKEFRONT CLEAR     62  58  86 S3        30.14S
N.O. DOWNTOWN* PTSUNNY   64  55  72 S3        30.14S
SLIDELL        CLEAR     57  54  89 CALM      30.13F
BATON ROUGE    CLEAR     61  55  81 E3        30.12R
BOOTHVILLE     CLEAR     59  57  93 CALM      30.13S
BELLE CHASSE   CLOUDY   N/A N/A N/A CALM      30.13S
BOGALUSA*        N/A     59  56  89 CALM      30.15S
GALLIANO*      SUNNY     62  58  88 CALM      30.13S
NEW ROADS*     NOT AVBL
GONZALES*      PTSUNNY   64  64  99 SE5       30.12S
HAMMOND*       NOT AVBL
HOUMA*           N/A     61  58  89 E5        30.13S
PORT FOURCHON* SUNNY     64  59  82 SE5       30.14S

$$

LAZ041-044-053-054-210900-
SOUTHWEST LOUISIANA

CITY           SKY/WX    TMP DP  RH WIND       PRES   REMARKS
LAKE CHARLES   CLEAR     58  56  93 CALM      30.09F
LAFAYETTE      CLEAR     63  60  90 CALM      30.10F
PATTERSON        N/A    N/A N/A N/A MISG        N/A
SALT POINT       N/A     66  64  93 SE3       30.11R
NEW IBERIA     CLEAR     60  57  89 SE3       30.11S
CHENAULT AIRPK NOT AVBL

$$

LAZ027-028-210900-
CENTRAL LOUISIANA

CITY           SKY/WX    TMP DP  RH WIND       PRES   REMARKS
FORT POLK      CLEAR     59  55  87 CALM      30.09F
ALEXANDRIA INT CLEAR     59  56  89 CALM      30.08S
ALEXANDRIA     CLEAR     57  54  89 W3        30.09S

$$

LAZ001-002-210900-
NORTHWEST LOUISIANA

CITY           SKY/WX    TMP DP  RH WIND       PRES   REMARKS
SHREVEPORT     PTCLDY    66  56  70 SW7       30.06S
BARKSDALE AFB  MOCLDY    67  56  65 SW8       30.06S
DTN SHREVEPORT CLOUDY    66  56  70 SW8       30.06S

$$

LAZ014-016-210900-
NORTHEAST LOUISIANA

CITY           SKY/WX    TMP DP  RH WIND       PRES   REMARKS
MONROE         CLEAR     56  53  90 CALM      30.08S
TALLULAH       CLEAR     60  55  83 CALM      30.08F

$$




USA.gov is the U.S. government's official web portal to all federal, state and local government web resources and services.